GW0787 Weather Reports


Display with metric or nautical units.
time (UTC)temp
F
wind
direction
speed
MPH
gust
MPH
rain 1hr
in
rain 24hr
in
rain mn
in
humidity
%
barometer
mb
20260831230106 81 188 3.0 9.0 0.00 0.00 0.00 32 1011.0
20260831224557 82 245 1.0 9.0 0.00 0.00 0.00 35 1011.2
20260831223055 82 224 1.0 6.0 0.00 0.00 0.00 34 1011.4
20260831221550 80 306 1.0 6.0 0.00 0.00 0.00 33 1011.5
20260831220056 80 336 1.0 10.0 0.00 0.00 0.00 35 1011.8
20260831214548 79 222 2.0 9.0 0.00 0.00 0.00 33 1012.0
20260831213046 79 232 3.0 7.0 0.00 0.00 0.00 37 1012.3
20260831211539 77 224 4.0 7.0 0.00 0.00 0.00 38 1012.6
20260831210039 76 214 0.0 8.0 0.00 0.00 0.00 39 1012.9
20260831204545 76 156 2.0 7.0 0.00 0.00 0.00 39 1013.1
20260831203052 75 64 1.0 8.0 0.00 0.00 0.00 38 1013.3
20260831201528 75 156 2.0 6.0 0.00 0.00 0.00 41 1013.6
20260831200035 74 228 4.0 9.0 0.00 0.00 0.00 41 1013.9
20260831194523 72 209 2.0 5.0 0.00 0.00 0.00 43 1014.2
20260831193018 72 213 1.0 5.0 0.00 0.00 0.00 46 1014.4
20260831191513 70 114 0.0 4.0 0.00 0.00 0.00 48 1014.8
20260831190010 69 210 2.0 4.0 0.00 0.00 0.00 51 1015.1
20260831184504 67 235 1.0 4.0 0.00 0.00 0.00 55 1015.4
20260831183001 66 190 0.0 3.0 0.00 0.00 0.00 57 1015.6
20260831181602 64 108 1.0 3.0 0.00 0.00 0.00 62 1015.9
20260831180051 62 317 0.0 2.0 0.00 0.00 0.00 66 1016.1
20260831174551 61 316 0.0 3.0 0.00 0.00 0.00 66 1016.3
20260831173043 59 116 1.0 3.0 0.00 0.00 0.00 71 1016.5
20260831171538 57 68 0.0 3.0 0.00 0.00 0.00 75 1016.5
20260831170038 55 161 0.0 2.0 0.00 0.00 0.00 78 1016.6
20260831164529 53 176 0.0 3.0 0.00 0.00 0.00 82 1016.8
20260831163027 51 187 0.0 1.0 0.00 0.00 0.00 87 1017.0
20260831161521 48 188 0.0 0.0 0.00 0.00 0.00 90 1017.3
20260831160035 47 188 0.0 1.0 0.00 0.00 0.00 90 1017.3
20260831154513 45 188 0.0 0.0 0.00 0.00 0.00 90 1017.4
20260831153032 44 187 0.0 0.0 0.00 0.00 0.00 90 1017.5
20260831151513 43 188 0.0 0.0 0.00 0.00 0.00 91 1017.5
20260831150012 42 188 0.0 0.0 0.00 0.00 0.00 90 1017.5
20260831144512 42 187 0.0 0.0 0.00 0.00 0.00 91 1017.5
20260831143010 41 188 0.0 0.0 0.00 0.00 0.00 90 1017.5
20260831141517 41 188 0.0 0.0 0.00 0.00 0.00 90 1017.3
20260831140010 41 187 0.0 0.0 0.00 0.00 0.00 90 1017.2
20260831134508 40 188 0.0 0.0 0.00 0.00 0.00 90 1017.0
20260831133006 40 187 0.0 0.0 0.00 0.00 0.00 90 1016.9
20260831131509 41 188 0.0 0.0 0.00 0.00 0.00 90 1016.9
20260831130003 41 188 0.0 0.0 0.00 0.00 0.00 90 1017.0
20260831124502 41 187 0.0 0.0 0.00 0.00 0.00 90 1016.9
20260831123100 41 188 0.0 0.0 0.00 0.00 0.00 90 1017.0
20260831121559 41 188 0.0 0.0 0.00 0.00 0.00 90 1017.0
20260831120143 42 188 0.0 0.0 0.00 0.00 0.00 89 1017.0
20260831114555 42 187 0.0 0.0 0.00 0.00 0.00 90 1017.1
20260831113057 42 188 0.0 0.0 0.00 0.00 0.00 89 1017.0
20260831111558 42 188 0.0 0.0 0.00 0.00 0.00 89 1017.0
20260831110051 43 188 0.0 0.0 0.00 0.00 0.00 89 1017.0
20260831104549 43 188 0.0 0.0 0.00 0.00 0.00 89 1017.0
20260831103050 43 188 0.0 0.0 0.00 0.00 0.00 89 1017.0
20260831101546 43 187 0.0 0.0 0.00 0.00 0.00 89 1017.1
20260831100050 44 187 0.0 0.0 0.00 0.00 0.00 89 1017.2
20260831094552 44 188 0.0 0.0 0.00 0.00 0.00 88 1017.3
20260831093041 44 188 0.0 0.0 0.00 0.00 0.00 88 1017.4
20260831091538 44 188 0.0 0.0 0.00 0.00 0.00 88 1017.3
20260831090037 45 188 0.0 0.0 0.00 0.00 0.00 88 1017.3
20260831084540 45 188 0.0 0.0 0.00 0.00 0.00 87 1017.3
20260831083034 45 188 0.0 0.0 0.00 0.00 0.00 87 1017.2
20260831081542 46 188 0.0 0.0 0.00 0.00 0.00 87 1017.2
20260831080034 46 187 0.0 0.0 0.00 0.00 0.00 87 1017.1
20260831074528 46 188 0.0 0.0 0.00 0.00 0.00 87 1017.2
20260831073029 46 188 0.0 0.0 0.00 0.00 0.00 87 1017.2
20260831071529 47 188 0.0 0.0 0.00 0.00 0.00 86 1017.4
20260831070028 47 188 0.0 1.0 0.00 0.00 0.00 86 1017.4
20260831064522 47 188 0.0 1.0 0.00 0.00 0.00 86 1017.3
20260831063025 48 188 0.0 2.0 0.00 0.00 0.00 86 1017.4
20260831061521 48 229 0.0 2.0 0.00 0.00 0.00 85 1017.4
20260831060020 49 230 0.0 1.0 0.00 0.00 0.00 84 1017.6
20260831054520 50 230 0.0 0.0 0.00 0.00 0.00 83 1017.6
20260831053021 50 230 0.0 0.0 0.00 0.00 0.00 82 1017.7
20260831051532 50 230 0.0 1.0 0.00 0.00 0.00 82 1017.8
20260831050019 51 230 0.0 2.0 0.00 0.00 0.00 81 1017.7
20260831044519 52 230 0.0 2.0 0.00 0.00 0.00 80 1017.7
20260831043019 53 229 0.0 0.0 0.00 0.00 0.00 79 1017.7
20260831041528 53 230 0.0 2.0 0.00 0.00 0.00 78 1017.6
20260831040036 54 231 1.0 2.0 0.00 0.00 0.00 77 1017.5
20260831034516 55 207 1.0 4.0 0.00 0.00 0.00 76 1017.3
20260831033016 56 205 0.0 3.0 0.00 0.00 0.00 75 1017.2
20260831031515 57 204 0.0 1.0 0.00 0.00 0.00 74 1017.1
20260831030015 58 204 0.0 2.0 0.00 0.00 0.00 71 1017.0
20260831024515 59 204 0.0 1.0 0.00 0.00 0.00 69 1016.9
20260831023023 60 204 0.0 1.0 0.00 0.00 0.00 68 1016.9
20260831021536 61 204 0.0 2.0 0.00 0.00 0.00 67 1016.9
20260831020014 64 204 0.0 6.0 0.00 0.00 0.00 58 1016.8
20260831014514 66 212 0.0 3.0 0.00 0.00 0.00 53 1016.7
20260831013013 68 217 0.0 4.0 0.00 0.00 0.00 51 1016.6
20260831011512 70 167 0.0 6.0 0.00 0.00 0.00 46 1016.7
20260831010028 69 216 1.0 9.0 0.00 0.00 0.00 47 1016.7
20260831004512 69 166 2.0 10.0 0.00 0.00 0.00 47 1016.7
20260831003010 70 187 5.0 11.0 0.00 0.00 0.00 45 1016.6
20260831001513 72 228 4.0 11.0 0.00 0.00 0.00 43 1016.4
20260831000004 73 204 3.0 14.0 0.00 0.00 0.00 43 1016.4
20260830234602 73 150 1.0 11.0 0.00 0.00 0.00 42 1016.4
20260830233057 71 185 1.0 7.0 0.00 0.00 0.00 47 1016.4
20260830231556 69 41 2.0 8.0 0.00 0.00 0.00 46 1016.5